Theta_e
286 280 276 277 278 280 280 278 277 278 282 281 279 279 282 282 283 283 283 284 286 287 290 289 290 290 289 289 290 290 290 290 288 287 286 287 286 288 288 289 290 290 290 290
282 277 280 282 282 280 280 278 276 280 282 281 281 280 283 282 283 283 284 284 285 286 287 288 289 288 288 288 288 288 288 287 287 286 285 285 285 286 286 287 288 290 290 289
279 280 283 282 279 279 279 278 277 277 280 281 279 282 282 282 283 285 286 286 287 287 287 287 288 287 286 286 286 287 287 287 287 287 286 285 285 285 284 285 286 287 288 288
279 281 280 281 279 279 277 280 280 280 279 275 280 277 280 281 283 283 285 285 286 287 287 287 287 287 287 287 287 288 288 287 287 286 285 284 283 283 285 285 286 286 287 287
278 277 277 280 279 280 279 280 279 279 278 277 278 275 282 281 281 283 285 284 286 287 288 287 287 288 289 289 287 287 288 287 287 286 286 285 284 285 285 284 284 285 286 287
277 279 278 278 280 280 282 279 280 279 278 273 274 275 278 281 282 283 284 284 285 287 288 289 287 287 288 288 288 287 287 288 288 286 286 285 285 285 284 284 284 285 286 286
279 277 278 279 278 280 279 278 272 275 272 275 274 273 279 282 283 283 283 284 285 286 288 289 288 285 285 285 287 288 287 287 288 288 287 286 286 286 285 285 285 285 285 285
276 278 277 278 276 275 277 277 274 268 270 273 275 271 280 283 283 282 284 283 283 285 286 288 289 288 285 285 285 287 288 288 288 288 288 288 287 287 287 287 287 286 286 287
275 277 276 277 277 277 276 275 277 266 259 265 273 277 283 283 283 284 283 283 283 285 285 286 287 289 288 285 285 285 286 288 289 289 289 289 289 288 288 288 288 287 288 288
278 277 276 276 276 277 276 277 273 269 267 264 272 274 278 282 281 283 283 283 284 285 286 287 287 287 288 288 287 285 286 286 287 286 288 289 289 290 289 289 288 288 288 288
278 278 278 276 276 276 273 273 274 273 273 267 265 273 280 281 280 279 281 285 287 288 287 286 286 287 287 287 286 285 284 285 285 286 287 286 287 288 289 288 289 289 289 289
279 277 271 276 274 274 275 275 275 270 269 270 269 274 286 283 282 283 287 288 289 289 288 287 284 284 285 286 286 286 286 285 286 286 286 286 287 287 287 287 288 289 288 289
280 275 270 276 277 275 273 277 277 271 270 268 266 275 284 285 286 286 285 285 286 286 285 285 285 286 287 287 287 287 287 287 287 287 286 286 286 287 287 287 288 288 288 288
284 276 276 277 280 277 274 273 273 271 271 275 275 278 283 284 283 283 283 283 283 284 285 285 285 286 286 287 288 288 289 288 287 287 286 285 286 287 287 288 288 288 288 287
283 278 274 273 276 276 276 277 276 271 276 272 278 278 282 282 280 281 283 283 282 283 284 283 284 285 286 287 288 288 289 287 287 287 286 287 287 288 288 287 287 288 288 287
279 274 268 267 272 276 275 277 277 278 278 275 276 276 279 280 281 281 282 282 282 282 282 282 285 285 286 287 287 287 287 287 288 287 287 287 287 287 286 286 287 287 287 287
277 276 270 266 268 266 267 273 278 278 277 277 273 276 278 277 277 278 278 280 281 280 280 282 283 284 284 284 285 285 286 287 287 286 287 287 287 286 285 286 286 285 286 286
275 276 275 268 264 260 275 278 279 278 279 276 275 274 275 275 276 276 278 278 278 278 280 281 282 282 283 284 284 285 286 286 286 286 286 287 286 286 286 285 284 285 285 285
282 280 273 270 261 271 277 276 275 274 274 275 272 273 274 275 275 275 277 279 280 278 281 281 282 282 283 283 283 283 284 285 285 285 286 286 286 286 285 284 284 284 284 284
278 280 276 271 269 263 273 276 277 277 270 275 273 273 273 273 268 271 277 278 278 279 279 280 281 282 282 282 283 283 283 283 283 284 285 285 285 284 283 283 283 283 283 283
274 275 274 274 272 270 276 277 277 268 272 274 274 274 273 271 272 275 277 278 279 279 279 280 281 280 281 282 282 281 281 281 284 284 284 284 284 283 283 282 282 282 281 281
271 270 271 272 270 268 277 274 273 276 276 275 274 273 273 274 275 276 277 277 278 278 279 280 280 280 282 283 281 280 280 282 282 282 282 283 284 284 283 282 281 281 280 279
271 275 272 274 273 279 278 277 278 276 275 274 274 274 274 274 274 276 276 277 278 279 280 281 280 280 281 281 280 279 280 280 281 280 281 281 282 282 283 281 281 281 281 280
274 277 273 274 277 278 279 277 277 278 278 278 276 275 274 274 276 276 277 277 278 279 279 280 280 279 279 279 278 278 279 280 279 278 278 279 280 281 281 282 281 280 279 279
275 275 273 274 277 277 279 278 279 279 278 276 276 276 275 276 276 276 277 277 278 279 279 280 280 280 279 280 278 279 279 278 277 277 277 277 279 279 279 280 280 279 279 280
276 276 273 272 278 277 278 279 278 276 276 277 276 276 277 277 276 277 277 278 278 278 279 279 280 280 280 279 278 278 278 277 276 276 276 277 277 277 278 278 278 283 283 283
Wind_Speed
6 11 6 5 2 3 5 4 5 5 0 7 4 9 12 6 7 9 9 8 9 10 7 7 9 10 9 9 10 10 10 12 9 6 4 4 4 6 6 7 9 7 6 6
7 4 4 6 2 2 3 4 5 9 5 5 6 13 5 3 5 8 10 9 11 7 6 7 7 8 9 10 10 9 10 9 8 5 1 2 2 3 3 4 5 7 7 7
5 4 6 2 4 8 3 4 5 6 11 3 8 7 7 1 2 3 7 8 7 10 9 8 8 9 8 9 10 11 11 9 8 8 3 2 2 3 2 4 5 8 9 8
4 3 4 5 5 4 6 2 3 6 7 2 8 6 4 5 9 4 7 8 9 9 7 6 7 7 10 12 10 12 11 11 9 7 6 9 9 8 6 5 5 6 7 8
2 5 5 5 2 2 6 3 3 2 3 3 10 6 8 6 7 7 8 7 9 8 7 8 9 12 13 11 12 12 11 11 11 11 12 9 11 9 5 3 6 7 6 8
2 1 2 1 3 3 6 2 1 3 2 5 4 5 8 5 5 7 6 9 8 7 7 8 8 8 10 9 11 10 13 14 13 13 15 16 16 12 8 8 8 7 7 8
2 2 1 3 4 1 5 6 6 8 8 6 3 4 10 7 4 4 5 8 9 7 6 7 8 8 8 10 13 11 13 16 16 16 17 17 17 14 15 12 10 10 8 8
2 6 3 5 3 1 4 2 6 5 3 6 3 5 4 4 4 3 5 7 6 8 6 8 8 8 9 10 11 12 14 17 14 16 16 15 16 11 12 14 11 10 11 11
3 5 1 3 1 1 2 3 3 8 2 4 4 9 8 5 1 8 10 9 10 10 9 8 9 7 9 9 12 14 14 14 14 13 12 14 14 16 15 17 14 12 14 11
3 3 1 1 1 2 1 3 3 4 1 5 6 6 8 6 4 8 10 9 8 7 9 9 9 8 7 8 8 8 9 13 10 8 10 11 13 14 15 14 16 16 16 16
4 4 3 2 5 5 1 1 3 3 4 6 3 8 8 4 2 4 4 7 10 13 9 8 8 12 10 10 8 7 5 6 7 7 8 9 12 13 14 14 16 17 17 16
1 5 3 6 0 1 3 4 5 6 6 4 3 10 11 7 5 7 20 18 18 15 14 11 10 8 10 10 9 8 7 6 7 9 7 9 12 12 13 15 17 17 18 17
4 2 3 7 3 2 4 5 4 4 4 7 4 9 3 10 22 14 17 20 19 17 18 13 13 13 14 15 15 15 11 8 7 7 7 9 10 10 13 15 16 15 17 17
3 1 8 7 5 5 3 3 4 5 4 13 14 27 19 16 12 12 11 15 10 11 13 16 18 16 13 13 15 15 17 11 7 7 7 8 10 11 13 14 14 15 15 16
4 5 3 5 5 4 6 9 11 11 17 12 22 20 17 14 7 7 7 12 10 6 11 16 15 10 11 15 15 15 15 10 10 12 11 12 12 12 11 12 14 14 14 16
2 4 3 4 5 4 5 11 15 16 14 11 17 21 5 5 6 10 13 16 14 7 15 18 13 14 14 15 13 13 16 16 12 14 14 14 14 13 12 12 13 13 14 16
3 3 3 7 3 5 8 13 15 5 7 6 6 2 6 13 15 14 15 16 11 12 18 11 12 15 18 19 19 19 19 17 17 17 18 18 17 15 15 14 12 11 13 14
6 4 2 5 5 3 6 1 3 7 4 4 4 5 6 10 12 12 11 9 18 16 8 15 18 20 19 17 18 19 18 18 17 18 19 19 18 18 17 12 12 13 11 11
4 4 2 3 5 7 7 3 2 2 6 5 2 9 11 16 18 9 9 12 16 12 19 19 18 18 18 20 18 16 16 16 17 18 19 18 17 18 18 15 14 13 13 13
1 2 4 2 6 9 3 4 4 1 8 2 5 9 11 12 15 18 19 16 19 17 16 15 17 18 17 17 16 15 17 18 19 19 19 16 16 15 16 17 16 14 12 12
4 3 15 13 9 8 4 6 3 4 8 3 6 9 11 10 6 20 21 22 19 17 15 17 17 15 14 13 13 13 14 16 18 18 18 19 18 17 16 16 15 15 14 13
9 9 6 5 6 12 8 2 7 3 4 3 7 7 9 11 15 18 22 23 24 23 20 19 16 13 15 15 13 13 14 17 15 16 17 18 19 15 14 16 15 14 12 13
3 7 6 12 8 4 5 6 6 3 7 7 6 8 8 12 17 20 19 24 23 23 20 17 15 14 16 15 13 15 18 16 17 17 19 19 20 18 16 15 15 12 12 10
4 3 4 4 7 15 8 5 6 8 13 10 6 8 8 12 18 20 21 22 20 20 19 19 17 18 15 14 12 14 15 18 17 18 20 20 20 20 18 13 11 10 11 11
5 5 3 12 12 14 18 13 15 14 8 7 9 9 10 13 16 18 20 22 20 20 19 18 17 18 20 17 14 16 19 18 18 19 19 19 18 19 17 16 11 11 13 11
7 11 9 15 15 14 19 15 8 7 9 11 10 15 16 14 16 20 20 19 18 19 19 18 19 19 20 19 18 18 20 19 19 19 17 16 16 16 15 14 16 20 23 25
Wind_Direction
10 54 22 317 302 284 277 275 292 267 98 343 252 273 285 226 205 236 244 252 252 249 259 226 216 206 202 210 217 221 216 198 183 175 183 208 215 205 208 201 202 194 197 196
22 54 295 287 313 207 50 321 331 279 276 356 332 306 307 142 233 212 227 240 239 244 249 234 207 201 208 212 219 222 220 208 206 209 236 213 176 215 217 208 214 215 204 197
65 331 316 327 14 19 29 69 331 240 316 277 317 328 356 20 250 238 249 242 244 231 230 220 203 204 203 216 215 219 221 223 218 210 199 243 311 305 247 216 217 211 199 202
104 309 349 358 47 6 354 139 269 313 3 328 14 281 326 338 326 306 286 248 245 240 237 226 205 205 207 218 212 216 214 215 218 209 219 219 225 227 222 208 219 227 214 213
299 9 18 45 330 3 270 340 279 324 7 42 345 60 276 350 4 360 359 319 281 257 238 235 215 213 213 207 208 209 212 214 216 204 210 219 237 244 248 239 223 217 213 221
70 286 42 258 287 224 302 320 89 53 59 26 274 97 293 344 321 314 332 358 345 326 274 249 230 212 216 203 207 204 208 217 212 210 213 218 225 230 234 230 230 226 219 218
8 72 20 359 325 192 3 32 353 2 10 232 114 25 242 306 314 305 336 358 9 3 278 274 262 238 230 213 214 211 211 222 217 217 220 222 231 233 240 235 230 231 231 224
104 325 22 350 70 310 5 99 140 234 245 276 355 240 229 267 295 52 54 37 18 9 343 328 294 268 255 239 226 220 217 231 222 221 226 226 229 232 236 239 235 235 233 234
141 272 140 50 24 47 286 62 139 100 27 43 261 285 297 198 295 18 41 30 6 355 350 317 310 287 263 246 233 221 226 236 231 224 226 227 226 227 231 235 233 232 236 236
197 304 68 62 144 38 61 152 78 360 168 283 291 287 247 269 14 6 19 359 336 324 317 328 323 323 320 294 275 245 236 239 252 235 229 233 232 233 238 240 238 237 239 235
121 118 282 342 198 182 88 213 37 114 146 174 258 255 213 247 327 346 312 321 338 338 322 325 337 354 352 355 344 312 281 268 264 241 238 234 240 242 244 244 244 243 245 242
150 149 211 227 54 301 283 256 160 129 259 248 171 262 286 1 349 329 347 340 340 338 355 18 17 2 7 360 2 355 342 301 271 266 248 240 243 246 244 243 245 244 244 242
192 271 7 336 1 15 236 204 161 100 59 211 191 257 308 333 356 348 345 351 347 13 18 16 10 15 9 360 354 349 336 316 309 302 280 268 257 256 254 254 253 250 247 245
81 182 184 218 209 135 203 257 202 138 154 260 234 271 283 306 326 358 15 353 3 10 11 3 356 346 351 349 340 333 325 325 320 319 297 272 267 260 257 257 255 251 246 245
108 228 247 271 278 217 217 225 228 202 236 223 271 272 284 319 16 353 339 340 334 342 357 351 344 338 338 337 336 335 333 320 322 327 316 305 294 283 270 264 261 253 245 240
118 249 110 286 291 262 254 249 250 246 255 253 259 270 31 330 337 347 341 321 314 314 344 340 347 340 339 337 326 323 315 307 306 304 294 291 288 282 268 261 254 258 254 251
146 176 69 267 339 347 310 238 240 186 207 194 216 189 335 338 337 334 316 301 321 338 332 345 331 323 315 310 308 302 300 300 297 297 298 293 284 275 272 268 267 254 258 261
160 130 124 263 9 308 260 168 200 223 227 95 55 358 313 310 307 300 288 347 333 320 320 319 315 309 304 298 297 297 296 294 293 292 292 289 286 286 286 283 274 277 271 255
200 136 226 234 209 301 303 160 156 148 252 135 342 338 340 331 319 311 17 346 333 319 310 305 302 299 298 300 296 293 296 294 296 290 290 291 292 295 289 283 280 280 279 277
121 222 168 178 246 233 228 207 240 46 266 159 10 329 322 335 328 319 329 322 310 300 296 291 294 293 290 288 284 291 294 299 298 301 298 295 291 285 283 289 286 283 278 276
144 179 216 226 251 278 181 217 208 147 283 297 339 314 313 315 271 301 313 313 309 304 296 295 297 291 287 278 278 283 283 284 287 295 296 295 292 284 287 283 281 283 287 282
163 163 196 210 238 280 170 169 190 203 304 313 274 256 285 290 301 306 310 310 311 308 305 299 297 288 290 285 276 278 280 281 287 288 287 288 288 286 279 274 271 269 270 275
239 195 193 194 207 245 175 222 230 168 233 260 231 271 277 295 299 307 306 310 307 303 297 289 283 276 276 279 279 284 282 288 290 292 293 291 290 284 279 275 269 271 269 265
280 186 232 26 208 260 268 235 227 236 274 281 254 268 279 283 297 303 304 304 299 295 293 294 286 284 275 269 264 271 281 287 292 294 296 294 290 286 285 279 267 260 260 265
197 138 222 259 275 279 272 256 266 276 265 247 252 250 267 284 287 296 300 301 295 292 293 291 288 284 282 275 277 285 289 294 295 295 294 294 290 287 287 281 270 260 256 253
191 230 231 257 262 253 277 281 259 256 259 266 276 289 291 283 289 300 298 296 292 289 289 286 288 291 288 283 284 289 289 295 294 291 292 289 289 289 286 283 287 265 260 272